JH5EWP-13 Weather Reports


time (UTC)temp
F
wind
direction
speed
knots
gust
knots
rain 1hr
in
rain 24hr
in
rain mn
in
humidity
%
barometer
mb
20260508095123 66 282 3.5 7.0 0.00 0.00 0.00 35 1002.9
20260508093623 66 289 4.3 7.0 0.00 0.00 0.00 34 1002.6
20260508092123 68 282 4.3 7.8 0.00 0.00 0.00 38 1002.2
20260508090623 69 283 5.2 11.3 0.00 0.00 0.00 36 1001.9
20260508085123 69 252 5.2 10.4 0.00 0.00 0.00 41 1001.7
20260508083623 70 259 4.3 8.7 0.00 0.00 0.00 41 1001.7
20260508082122 69 252 5.2 10.4 0.00 0.00 0.00 48 1001.4
20260508080622 69 256 6.1 10.4 0.00 0.00 0.00 46 1001.2
20260508075122 70 271 6.1 10.4 0.00 0.00 0.00 47 1000.9
20260508073622 71 267 6.1 13.0 0.00 0.00 0.00 43 1000.9
20260508072122 71 271 6.1 11.3 0.00 0.00 0.00 46 1000.6
20260508070622 71 269 9.6 16.5 0.00 0.00 0.00 45 1000.5
20260508065123 72 268 6.1 10.4 0.00 0.00 0.00 50 1000.5
20260508063623 71 258 5.2 9.6 0.00 0.00 0.00 52 1000.5
20260508062123 72 251 6.1 10.4 0.00 0.00 0.00 48 1000.6
20260508060624 72 241 6.1 13.0 0.00 0.00 0.00 48 1000.5
20260508055123 72 215 4.3 10.4 0.00 0.00 0.00 49 1000.7
20260508053624 72 247 5.2 10.4 0.00 0.00 0.00 48 1000.7
20260508052124 71 241 6.1 10.4 0.00 0.00 0.00 52 1000.8
20260508050623 72 229 5.2 10.4 0.00 0.00 0.00 52 1000.7
20260508045122 72 236 6.1 13.0 0.00 0.00 0.00 52 1001.0
20260508043622 73 259 5.2 10.4 0.00 0.00 0.00 49 1000.8
20260508042123 72 229 6.1 10.4 0.00 0.00 0.00 53 1000.7
20260508040623 72 241 5.2 10.4 0.00 0.00 0.00 52 1001.0
20260508035123 72 229 5.2 11.3 0.00 0.00 0.00 53 1001.0
20260508033622 71 222 6.1 11.3 0.00 0.00 0.00 52 1001.1
20260508032123 70 237 4.3 9.6 0.00 0.00 0.00 52 1001.0
20260508030622 70 239 5.2 7.8 0.00 0.00 0.00 52 1001.0
20260508025122 70 219 4.3 7.8 0.00 0.00 0.00 57 1001.0
20260508023623 70 225 4.3 8.7 0.00 0.00 0.00 62 1001.3
20260508022123 69 259 5.2 7.8 0.00 0.00 0.00 62 1001.3
20260508020622 69 240 4.3 10.4 0.00 0.00 0.00 62 1001.3
20260508015124 70 235 2.6 7.8 0.00 0.00 0.00 63 1001.3
20260508013624 69 241 3.5 7.8 0.00 0.00 0.00 62 1001.4
20260508012123 70 230 3.5 8.7 0.00 0.00 0.00 61 1001.2
20260508010623 71 207 4.3 7.8 0.00 0.00 0.00 62 1001.3
20260508005124 71 220 3.5 7.0 0.00 0.00 0.00 62 1001.0
20260508003623 71 182 2.6 5.2 0.00 0.00 0.00 62 1000.7
20260508002122 70 189 2.6 6.1 0.00 0.00 0.00 64 1001.0
20260508000622 69 266 5.2 9.6 0.00 0.00 0.00 64 1000.8
20260507235123 69 244 4.3 8.7 0.00 0.00 0.00 64 1001.1
20260507233623 69 268 5.2 10.4 0.00 0.00 0.00 65 1001.0
20260507232123 70 271 5.2 9.6 0.00 0.00 0.00 62 1000.9
20260507230622 72 245 4.3 7.8 0.00 0.00 0.00 53 1000.7
20260507225123 73 262 3.5 7.8 0.00 0.00 0.00 49 1000.4
20260507223623 74 165 0.0 1.7 0.00 0.00 0.00 59 1000.5
20260507222123 71 99 1.7 2.6 0.00 0.00 0.00 69 1000.3
20260507220622 69 100 2.6 4.3 0.00 0.00 0.00 73 1000.4
20260507215122 69 103 0.9 2.6 0.00 0.00 0.00 79 1000.7
20260507213622 67 138 0.9 2.6 0.00 0.00 0.00 81 1000.7
20260507212123 66 105 2.6 5.2 0.00 0.00 0.00 81 1000.5
20260507210622 66 125 1.7 4.3 0.00 0.00 0.00 81 1000.4
20260507205122 66 116 1.7 4.3 0.00 0.00 0.00 81 1000.3
20260507203622 65 125 0.9 2.6 0.00 0.00 0.00 81 1000.2
20260507202122 65 122 0.9 2.6 0.00 0.00 0.00 81 1000.4
20260507200622 65 141 0.0 1.7 0.00 0.00 0.00 82 1000.4
20260507195124 65 194 0.0 0.9 0.00 0.00 0.00 83 1000.5
20260507193623 65 221 0.9 2.6 0.00 0.00 0.00 83 1000.1
20260507192122 65 155 0.0 1.7 0.00 0.00 0.00 83 1000.1
20260507190622 65 187 1.7 2.6 0.00 0.00 0.00 83 1000.4
20260507185123 65 195 1.7 3.5 0.00 0.00 0.00 83 1000.0
20260507183623 65 193 2.6 6.1 0.00 0.00 0.00 83 1000.2
20260507182123 65 213 2.6 5.2 0.00 0.00 0.00 83 1000.5
20260507180623 65 217 1.7 5.2 0.00 0.00 0.00 83 1000.6
20260507175123 65 218 1.7 3.5 0.00 0.00 0.00 82 1000.7
20260507173622 65 205 0.9 2.6 0.00 0.00 0.00 82 1000.5
20260507172122 65 264 1.7 3.5 0.00 0.00 0.00 81 1000.5
20260507170622 66 265 0.9 4.3 0.00 0.00 0.00 80 1000.5
20260507165122 66 240 0.9 1.7 0.00 0.00 0.00 79 1000.5
20260507163623 66 238 0.0 0.9 0.00 0.00 0.00 78 1000.5
20260507162122 66 257 0.9 2.6 0.00 0.00 0.00 78 1000.7
20260507160622 66 225 0.0 1.7 0.00 0.00 0.00 77 1000.7
20260507155123 66 225 0.0 0.0 0.00 0.00 0.00 76 1000.9
20260507153623 67 225 0.0 0.0 0.00 0.00 0.00 76 1001.1
20260507152122 67 193 0.0 1.7 0.00 0.00 0.00 76 1001.3
20260507150622 67 181 0.0 1.7 0.00 0.00 0.00 76 1001.1
20260507145122 67 225 0.0 0.9 0.00 0.00 0.00 76 1001.1
20260507143623 67 225 0.0 0.0 0.00 0.00 0.00 75 1001.1
20260507142122 67 225 0.0 0.9 0.00 0.00 0.00 75 1001.2
20260507140623 67 225 0.0 0.9 0.00 0.00 0.00 74 1001.4
20260507135123 67 269 0.9 2.6 0.00 0.00 0.00 74 1001.5
20260507133623 67 271 0.9 2.6 0.00 0.00 0.00 74 1001.7
20260507132122 66 270 0.0 0.9 0.00 0.00 0.00 73 1001.5
20260507130624 66 270 0.0 0.9 0.00 0.00 0.00 73 1001.3
20260507125123 67 270 0.0 0.0 0.00 0.00 0.00 72 1001.4
20260507123623 67 262 0.0 0.9 0.00 0.00 0.00 72 1001.4
20260507122122 67 225 0.0 0.9 0.00 0.00 0.00 72 1001.6
20260507120622 68 225 0.0 1.7 0.00 0.00 0.00 71 1001.3
20260507115123 68 225 0.0 1.7 0.00 0.00 0.00 71 1001.4
20260507113622 68 254 0.9 2.6 0.00 0.00 0.00 70 1001.4
20260507112122 69 252 0.9 2.6 0.00 0.00 0.00 70 1001.5
20260507110622 69 251 0.9 1.7 0.00 0.00 0.00 69 1001.3
20260507105122 69 258 0.9 2.6 0.00 0.00 0.00 69 1001.1
20260507103622 70 284 1.7 2.6 0.00 0.00 0.00 67 1001.2
20260507102122 70 194 0.9 2.6 0.00 0.00 0.00 66 1001.0
20260507100624 70 212 0.9 1.7 0.00 0.00 0.00 65 1000.9